DW0326 Weather Reports


time (UTC)temp
C
wind
direction
speed
KPH
gust
KPH
rain 1hr
cm
rain 24hr
cm
rain mn
cm
humidity
%
barometer
mb
20260504110633 16 164 0.0 6.4 0.00 0.00 0.00 81 1011.4
20260504100332 16 169 1.6 11.3 0.00 0.00 0.00 82 1011.5
20260504081532 16 0 0.0 0.0 0.00 0.00 0.00 80 1012.4
20260504080633 16 0 0.0 0.0 0.00 0.00 0.00 80 1012.7
20260504070332 17 0 0.0 0.0 0.00 0.00 0.00 78 1013.3
20260504050632 18 194 0.0 6.4 0.00 0.00 0.00 71 1014.2
20260504045732 18 194 0.0 8.0 0.00 0.00 0.00 71 1014.2
20260504044832 18 193 0.0 4.8 0.00 0.00 0.00 71 1014.2
20260504043932 18 0 0.0 0.0 0.00 0.00 0.00 70 1014.3
20260504043032 18 193 0.0 9.7 0.00 0.00 0.00 70 1014.3
20260504040333 19 0 0.0 0.0 0.00 0.00 0.00 68 1014.3
20260504035432 19 193 0.0 9.7 0.00 0.00 0.00 68 1014.4
20260504033632 20 193 0.0 4.8 0.00 0.00 0.00 67 1014.3
20260504032733 20 194 1.6 9.7 0.00 0.00 0.00 65 1014.3
20260504031833 20 188 3.2 11.3 0.00 0.00 0.00 64 1014.3
20260504025132 21 195 0.0 8.0 0.00 0.00 0.00 62 1014.2
20260504023332 21 190 0.0 9.7 0.00 0.00 0.00 61 1014.2
20260504020632 21 177 3.2 16.1 0.00 0.00 0.00 59 1014.0
20260504015732 21 181 4.8 12.9 0.00 0.00 0.00 58 1014.0
20260504014833 22 179 3.2 19.3 0.00 0.00 0.00 58 1013.9
20260504013933 22 183 4.8 17.7 0.00 0.00 0.00 57 1013.8
20260504013032 22 179 4.8 14.5 0.00 0.00 0.00 56 1013.8
20260504012132 22 173 4.8 16.1 0.00 0.00 0.00 55 1013.8
20260504011233 22 181 3.2 19.3 0.00 0.00 0.00 55 1013.8
20260504010332 22 176 4.8 20.9 0.00 0.00 0.00 54 1013.7
20260504005432 23 182 4.8 17.7 0.00 0.00 0.00 54 1013.8
20260504004532 23 184 4.8 16.1 0.00 0.00 0.00 53 1013.8
20260504003633 23 181 6.4 17.7 0.00 0.00 0.00 52 1013.7
20260504002732 23 170 3.2 16.1 0.00 0.00 0.00 51 1013.7
20260504000932 23 199 4.8 17.7 0.00 0.00 0.00 51 1013.8
20260504000033 24 191 6.4 22.5 0.00 0.00 0.00 50 1013.8
20260503235132 24 168 3.2 11.3 0.00 0.00 0.00 48 1013.8
20260503233332 25 189 4.8 22.5 0.00 0.00 0.00 48 1013.9
20260503232433 25 184 4.8 22.5 0.00 0.00 0.00 48 1013.8
20260503231532 25 186 6.4 19.3 0.00 0.00 0.00 47 1013.8
20260503230633 25 178 4.8 22.5 0.00 0.00 0.00 47 1013.9
20260503225732 26 190 4.8 29.0 0.00 0.00 0.00 46 1013.9
20260503224832 26 170 1.6 11.3 0.00 0.00 0.00 45 1014.1
20260503223933 26 164 3.2 16.1 0.00 0.00 0.00 43 1014.3
20260503222132 26 186 1.6 11.3 0.00 0.00 0.00 44 1014.4
20260503221232 26 195 1.6 12.9 0.00 0.00 0.00 44 1014.4